Regional Weather Roundup
Issued by NWS Kansas City/Pleasant Hill, MO

Home | Current Version | Previous Version | Text Only | Print | Product List | Glossary On
Versions: 1 2 3 4 5 6 7 8 9 10 11 12 13 14 15 16 17 18 19 20 21 22 23 24 25 26 27 28 29 30 31 32 33 34 35 36 37 38 39 40 41 42 43 44 45 46 47 48 49 50
000
ASUS43 KEAX 060511
RWREAX

WEATHER ROUNDUP FOR EASTERN KANSAS AND NORTHWEST MISSOURI
NATIONAL WEATHER SERVICE KANSAS CITY/PLEASANT HILL MO
1200 AM CDT MON JUL 06 2015

KSZ040-057-103>105-MOZ028-029-037-043-060600-
...KANSAS CITY METROPOLITAN AREA...

CITY           SKY/WX    TMP DP  RH WIND       PRES   REMARKS
K.C. INTL      PTCLDY    79  71  76 S15       29.90R
K.C. DOWNTOWN  CLEAR     81  69  67 S8        29.89R
LEES SUMMIT    CLEAR     76  67  73 S10G18    29.93R
OLATHE - IXD   CLEAR     77  68  73 S10       29.92R
OLATHE - OJC   PTCLDY    76  67  73 S7        29.91R
LAWRENCE       PTCLDY    81  70  69 S12G20    29.89S

$$

MOZ001>008-011>017-020>025-030>033-038>040-044>046-053-054-060600-
...NORTHERN AND CENTRAL MISSOURI...

CITY           SKY/WX    TMP DP  RH WIND       PRES   REMARKS
ST. JOSEPH     MOCLDY    82  74  76 S12       29.86S
MOSBY            N/A     79  68  69 SE6       29.91R
HARRISONVILLE  CLEAR     73  68  83 SE5       29.96S
WARRENSBURG    CLEAR     73  64  73 S7        29.94R
WHITEMAN AFB   CLEAR     73  66  78 S9        29.94S
CLINTON        CLEAR     75  66  73 S8        29.95S
SEDALIA        CLEAR     74  66  76 S10       29.96S
WARSAW         FAIR      72  66  83 S7        29.97R
CHILLICOTHE      N/A     80  73  79 SE6       29.92R
KIRKSVILLE     CLEAR     73  68  84 S8        29.95R

$$

MOZ041-047>049-056>058-063>065-088>090-097-060600-
...EASTERN AND SOUTHERN MISSOURI...

CITY           SKY/WX    TMP DP  RH WIND       PRES   REMARKS
ST. LOUIS INTL PTCLDY    79  68  69 S9        30.00F
SPIRIT OF STL  CLEAR     76  70  82 VRB5      29.98F
COLUMBIA       CLEAR     75  71  87 S8        29.97F
JEFFERSON CITY CLEAR     77  71  82 SE3       29.96F
MEXICO         CLEAR    N/A N/A N/A S8        29.97F
ROLLA          CLEAR     74  71  91 S9        29.99F
LEBANON        CLEAR     73  70  88 MISG      30.01S
OSAGE BEACH    CLEAR     73  66  78 S7        29.98F
SPRINGFIELD    CLEAR     72  67  84 S13       30.00F
BRANSON        CLEAR     70  68  94 CALM      30.03F
JOPLIN         PTCLDY    74  67  78 SE9       29.96S
WEST PLAINS    PTCLDY    74  71  91 S6        30.05F
MALDEN         PTCLDY    75  72  88 S5        30.04S

$$

IAZ060-094-KSZ022-034>040-054-083-096-NEZ052-066-093-060600-
...KANSAS...SOUTHEAST NEBRASKA AND IOWA...

CITY           SKY/WX    TMP DP  RH WIND       PRES   REMARKS
TOPEKA         PTCLDY    83  74  74 S12       29.87R
MANHATTAN      MOCLDY    85  71  63 S16       29.84R HX  90
EMPORIA        PTCLDY    81  73  76 S18G24    29.90R
CHANUTE        CLEAR     80  73  79 S10       29.92F
WICHITA        MOCLDY    84  70  62 S17       29.90R
OMAHA          TSTM      79  73  82 S15G24    29.81F
LINCOLN        CLOUDY    83  71  67 S17G23    29.78F
FALLS CITY     CLOUDY    83  74  74 S14       29.82F
LAMONI         PTCLDY    78  72  81 SE10      29.89S
DES MOINES     PTCLDY    77  68  73 S12       29.88S

$$




USA.gov is the U.S. government's official web portal to all federal, state and local government web resources and services.